Massena, NY

5:44 AM EDT on August 18, 2017 (GMT -0400)
Massena International-Richards

Weather History for KMSS - November, 2012

Change the Weather History Date:

Monday, November 5, 2012

  Actual Average Record
Temperature  
Mean Temperature 30 °F 39 °F  
Max Temperature 35 °F 48 °F 73 °F (2015)
Min Temperature 24 °F 31 °F 13 °F (1951)
Degree Days  
Heating Degree Days 35 26  
Month to date heating degree days 137 125  
Since 1 July heating degree days 782 1006  
Cooling Degree Days 0 0  
Month to date cooling degree days 0  
Year to date cooling degree days 363  
Moisture  
Dew Point 20 °F    
Average Humidity 63    
Maximum Humidity 75    
Minimum Humidity 51    
Precipitation  
Precipitation 0.00 in 0.11 in 0.65 in (1964)
Month to date precipitation 0.17 0.57  
Year to date precipitation 26.06 30.07  
Sea Level Pressure  
Sea Level Pressure 30.15 in    
Wind  
Wind Speed 7 mph (NW)    
Max Wind Speed 14 mph    
Max Gust Speed 18 mph    
Visibility 10 miles    
Events      
T = Trace of Precipitation, MM = Missing Value Source: NWS Daily Summary

Daily Weather History Graph

Daily Weather History Graph

Search for Another Location

Airport or City:

Trip Planner

Search our weather history database for the weather conditions in past years. The results will help you decide how hot, cold, wet, or windy it might be!

Date:

Astronomy

Nov. 05, 2012 Rise Set
Actual Time 6:43 AM EST 4:41 PM EST
Civil Twilight 6:12 AM EST 5:12 PM EST
Nautical Twilight 5:37 AM EST 5:47 PM EST
Astronomical Twilight 5:03 AM EST 6:21 PM EST
Moon 10:16 PM EST (11/5) 12:02 PM EST (11/5)
Length of Visible Light 10h 59m
Length of Day
9h 57m
Waning Gibbous, 63% of the Moon is Illuminated
Nov 5
Waning Gibbous
Nov 6
Last Quarter
Nov 13
New
Nov 20
First Quarter
Nov 28
Full

Hourly Weather History & Observations

Time (EST) Temp. Windchill Dew Point Humidity Pressure Visibility Wind Dir Wind Speed Gust Speed Precip Events Conditions
12:53 AM 35.1 °F 29.3 °F 21.9 °F 59% 30.08 in 10.0 mi NW 6.9 mph - N/A   Overcast
1:53 AM 33.1 °F 26.1 °F 21.0 °F 61% 30.09 in 10.0 mi NNW 8.1 mph - N/A   Overcast
2:53 AM 32.0 °F 24.8 °F 21.0 °F 64% 30.09 in 10.0 mi North 8.1 mph - N/A   Partly Cloudy
3:53 AM 30.9 °F 23.5 °F 21.9 °F 69% 30.10 in 10.0 mi NNW 8.1 mph - N/A   Clear
4:53 AM 30.0 °F 23.2 °F 21.9 °F 72% 30.11 in 10.0 mi NNW 6.9 mph - N/A   Clear
5:53 AM 30.0 °F 23.2 °F 21.9 °F 72% 30.12 in 10.0 mi NNW 6.9 mph - N/A   Clear
6:53 AM 28.9 °F 21.1 °F 21.9 °F 75% 30.13 in 10.0 mi NNW 8.1 mph - N/A   Clear
7:53 AM 30.9 °F 23.5 °F 23.0 °F 72% 30.14 in 10.0 mi NNW 8.1 mph - N/A   Clear
8:53 AM 33.1 °F 25.5 °F 23.0 °F 66% 30.15 in 10.0 mi NNW 9.2 mph - N/A   Clear
9:53 AM 35.1 °F 29.3 °F 21.9 °F 59% 30.16 in 10.0 mi North 6.9 mph - N/A   Scattered Clouds
10:53 AM 35.1 °F 30.1 °F 19.0 °F 52% 30.15 in 10.0 mi NNW 5.8 mph - N/A   Overcast
11:53 AM 34.0 °F 28.8 °F 19.0 °F 54% 30.15 in 10.0 mi NW 5.8 mph - N/A   Overcast
12:53 PM 35.1 °F 28.6 °F 19.0 °F 52% 30.14 in 10.0 mi WNW 8.1 mph - N/A   Overcast
1:53 PM 34.0 °F 28.0 °F 21.0 °F 59% 30.14 in 10.0 mi West 6.9 mph 16.1 mph N/A   Overcast
2:53 PM 34.0 °F 26.6 °F 21.0 °F 59% 30.14 in 10.0 mi West 9.2 mph - N/A   Overcast
3:53 PM 34.0 °F 25.0 °F 21.0 °F 59% 30.14 in 10.0 mi WNW 12.7 mph - N/A   Overcast
4:53 PM 34.0 °F 25.5 °F 17.1 °F 50% 30.16 in 10.0 mi WNW 11.5 mph - N/A   Overcast
5:53 PM 33.1 °F 27.7 °F 17.1 °F 52% 30.17 in 10.0 mi Variable 5.8 mph - N/A   Overcast
6:53 PM 33.1 °F 26.9 °F 17.1 °F 52% 30.19 in 10.0 mi West 6.9 mph - N/A   Overcast
7:53 PM 33.1 °F 27.7 °F 19.9 °F 59% 30.19 in 10.0 mi West 5.8 mph - N/A   Overcast
8:53 PM 32.0 °F 26.4 °F 21.0 °F 64% 30.20 in 10.0 mi NW 5.8 mph - N/A   Overcast
9:53 PM 28.9 °F 23.9 °F 19.0 °F 67% 30.20 in 10.0 mi WNW 4.6 mph - N/A   Clear
10:53 PM 28.9 °F - 18.0 °F 64% 30.20 in 10.0 mi Calm Calm - N/A   Clear
11:53 PM 27.0 °F 23.0 °F 16.0 °F 63% 30.21 in 10.0 mi WNW 3.5 mph - N/A   Clear